Hourly Data Report for October 26, 2016

All times are specified in Local Standard Time (LST). Add 1 hour to adjust for Daylight Saving Time where and when it is observed.

IQALUIT CLIMATE
NUNAVUT

63°44'50.000" N
68°32'40.000" W
33.50 m
2402592
71321
XFB

Download Data

Hourly Data (October 2016)
Hourly Data Report for October 26, 2016
Temp Definition
°C
Dew Point Temp Definition
°C
Rel Hum Definition
%
Wind Dir Definition
10's deg

Wind Spd Definition
km/h
Visibility Definition
km
Stn Press Definition
kPa
Hmdx Definition


Wind Chill Definition


Weather Definition


TIME
00:00 -5.9 -8.9 80 32 22   102.06   -13 LegendNANA
01:00 -5.8 -9.0 78 31 25   102.06   -13 LegendNANA
02:00 -5.8 -9.2 77 30 34   102.06   -15 LegendNANA
03:00 -5.8 -9.3 76 31 23   102.09   -13 LegendNANA
04:00 -5.9 -9.3 77 30 20   102.10   -13 LegendNANA
05:00 -5.8 -8.9 78 32 13   102.11   -11 LegendNANA
06:00 -6.4 -9.0 82 28 9   102.10   -11 LegendNANA
07:00 -7.1 -9.0 87 2 5   102.10   -10 LegendNANA
08:00 -6.9 -8.8 87 0 1   102.08   -7 LegendNANA
09:00 -6.1 -8.3 84 6 3   102.03   -8 LegendNANA
10:00 -5.6 -8.4 81 11 5   101.97   -8 LegendNANA
11:00 -5.5 -7.5 86 11 10   101.91   -10 LegendNANA
12:00 -5.3 -7.0 88 12 14   101.84   -11 LegendNANA
13:00 -5.1 -6.4 91 12 18   101.76   -11 LegendNANA
14:00 -4.1 -5.4 90 13 19   101.69   -10 LegendNANA
15:00 -2.5 -5.3 81 18 7   101.63   -5 LegendNANA
16:00 -1.6 -4.5 80 29 13   101.60   -6 LegendNANA
17:00 -1.8 -4.7 81 29 17   101.60   -7 LegendNANA
18:00 -2.8 -4.8 86 34 8   101.59   -6 LegendNANA
19:00 -3.3 -4.5 91 5 4   101.58   -5 LegendNANA
20:00 -3.6 -4.5 94 17 2   101.56   -4 LegendNANA
21:00 -4.5 -5.6 92 1 6   101.54   -7 LegendNANA
22:00 -4.3 -5.7 90 36 11   101.51   -9 LegendNANA
23:00 -4.2 -5.2 93 4 5   101.49   -6 LegendNANA

Notes on Data Quality.

Legend

  • E = Estimated
  • M = Missing
  • NA = Not Available
  • ‡ = Partner data that is not subject to review by the National Climate Archives
Date modified: